| time (UTC) | temp F | wind direction | speed MPH | gust MPH | rain 1hr in | rain 24hr in | rain mn in | humidity % | barometer mb |
| 20260504081541 | 38 | 162 | 0.0 | 1.0 | 0.00 | 0.00 | 0.00 | 77 | 1010.4 |
| 20260504050018 | 43 | 161 | 0.0 | 1.0 | 0.00 | 0.00 | 0.00 | 72 | 1010.6 |
| 20260504044517 | 44 | 161 | 0.0 | 3.0 | 0.00 | 0.00 | 0.00 | 71 | 1010.5 |
| 20260504043015 | 45 | 158 | 1.0 | 3.0 | 0.00 | 0.00 | 0.00 | 71 | 1010.5 |
| 20260504041533 | 45 | 158 | 1.0 | 2.0 | 0.00 | 0.00 | 0.00 | 70 | 1010.5 |
| 20260504040010 | 46 | 158 | 0.0 | 2.0 | 0.00 | 0.00 | 0.00 | 69 | 1010.5 |
| 20260504034505 | 46 | 158 | 0.0 | 2.0 | 0.00 | 0.00 | 0.00 | 68 | 1010.6 |
| 20260504033007 | 47 | 158 | 0.0 | 2.0 | 0.00 | 0.00 | 0.00 | 67 | 1010.6 |
| 20260504031507 | 47 | 158 | 0.0 | 2.0 | 0.00 | 0.00 | 0.00 | 67 | 1010.5 |
| 20260504030003 | 48 | 158 | 0.0 | 1.0 | 0.00 | 0.00 | 0.00 | 65 | 1010.6 |
| 20260504024503 | 48 | 158 | 1.0 | 3.0 | 0.00 | 0.00 | 0.00 | 64 | 1010.6 |
| 20260504023002 | 48 | 114 | 1.0 | 4.0 | 0.00 | 0.00 | 0.00 | 61 | 1010.8 |
| 20260504021500 | 49 | 192 | 1.0 | 4.0 | 0.00 | 0.00 | 0.00 | 62 | 1010.6 |
| 20260504020132 | 50 | 306 | 2.0 | 3.0 | 0.00 | 0.00 | 0.00 | 59 | 1010.7 |
| 20260504014602 | 50 | 306 | 0.0 | 3.0 | 0.00 | 0.00 | 0.00 | 57 | 1010.7 |
| 20260504013130 | 51 | 306 | 1.0 | 2.0 | 0.00 | 0.00 | 0.00 | 54 | 1010.5 |
| 20260504011559 | 52 | 306 | 1.0 | 3.0 | 0.00 | 0.00 | 0.00 | 52 | 1010.5 |
| 20260504010101 | 53 | 307 | 1.0 | 2.0 | 0.00 | 0.00 | 0.00 | 51 | 1010.3 |
| 20260504004558 | 54 | 307 | 1.0 | 2.0 | 0.00 | 0.00 | 0.00 | 46 | 1010.3 |
| 20260504003057 | 54 | 331 | 2.0 | 4.0 | 0.00 | 0.00 | 0.00 | 44 | 1010.1 |
| 20260504001559 | 54 | 205 | 1.0 | 3.0 | 0.00 | 0.00 | 0.00 | 44 | 1009.9 |
| 20260504000101 | 55 | 212 | 2.0 | 3.0 | 0.00 | 0.00 | 0.00 | 43 | 1009.8 |
| 20260503234556 | 55 | 216 | 1.0 | 4.0 | 0.00 | 0.00 | 0.00 | 42 | 1009.6 |
| 20260503233055 | 56 | 225 | 0.0 | 4.0 | 0.00 | 0.00 | 0.00 | 41 | 1009.5 |
| 20260503231554 | 56 | 221 | 1.0 | 4.0 | 0.00 | 0.00 | 0.00 | 41 | 1009.5 |
| 20260503230058 | 56 | 251 | 2.0 | 4.0 | 0.00 | 0.00 | 0.00 | 40 | 1009.5 |
| 20260503224601 | 56 | 229 | 0.0 | 4.0 | 0.00 | 0.00 | 0.00 | 41 | 1009.7 |
| 20260503223053 | 55 | 229 | 1.0 | 4.0 | 0.00 | 0.00 | 0.00 | 40 | 1009.7 |
| 20260503221600 | 55 | 211 | 1.0 | 5.0 | 0.00 | 0.00 | 0.00 | 40 | 1009.7 |
| 20260503220050 | 55 | 248 | 1.0 | 4.0 | 0.00 | 0.00 | 0.00 | 41 | 1009.9 |
| 20260503214550 | 54 | 355 | 2.0 | 8.0 | 0.00 | 0.00 | 0.00 | 42 | 1010.1 |
| 20260503213049 | 54 | 327 | 1.0 | 6.0 | 0.00 | 0.00 | 0.00 | 42 | 1010.1 |
| 20260503211550 | 54 | 317 | 2.0 | 7.0 | 0.00 | 0.00 | 0.00 | 42 | 1010.0 |
| 20260503210047 | 54 | 282 | 5.0 | 9.0 | 0.00 | 0.00 | 0.00 | 42 | 1010.1 |
| 20260503204603 | 54 | 292 | 3.0 | 11.0 | 0.00 | 0.00 | 0.00 | 44 | 1010.3 |
| 20260503203047 | 54 | 304 | 5.0 | 11.0 | 0.00 | 0.00 | 0.00 | 41 | 1010.3 |
| 20260503201545 | 54 | 265 | 3.0 | 10.0 | 0.00 | 0.00 | 0.00 | 39 | 1010.2 |
| 20260503200045 | 55 | 300 | 4.0 | 11.0 | 0.00 | 0.00 | 0.00 | 36 | 1010.2 |
| 20260503194546 | 55 | 288 | 2.0 | 9.0 | 0.00 | 0.00 | 0.00 | 37 | 1010.2 |
| 20260503193047 | 54 | 345 | 3.0 | 8.0 | 0.00 | 0.00 | 0.00 | 35 | 1010.5 |
| 20260503191604 | 54 | 29 | 4.0 | 15.0 | 0.00 | 0.00 | 0.00 | 37 | 1010.5 |
| 20260503190044 | 54 | 312 | 8.0 | 14.0 | 0.00 | 0.00 | 0.00 | 35 | 1010.7 |
| 20260503184539 | 56 | 311 | 7.0 | 11.0 | 0.00 | 0.00 | 0.00 | 33 | 1010.8 |
| 20260503183037 | 55 | 269 | 3.0 | 16.0 | 0.00 | 0.00 | 0.00 | 34 | 1010.9 |
| 20260503181545 | 55 | 236 | 2.0 | 10.0 | 0.00 | 0.00 | 0.00 | 38 | 1011.1 |
| 20260503180033 | 54 | 281 | 2.0 | 17.0 | 0.00 | 0.00 | 0.00 | 35 | 1011.2 |
| 20260503174530 | 52 | 315 | 4.0 | 10.0 | 0.00 | 0.00 | 0.00 | 37 | 1011.5 |
| 20260503173027 | 51 | 296 | 4.0 | 12.0 | 0.00 | 0.00 | 0.00 | 38 | 1011.8 |
| 20260503171524 | 50 | 296 | 4.0 | 9.0 | 0.00 | 0.00 | 0.00 | 40 | 1012.1 |